STARLINK-6321, 57340

Orbit data source: Space-Track

STARLINK-6321, 57340 is a payload satellite owned by SpaceX/Seattle (US) in LEO that was launched on Sun, 16 Jul 2023 UTC via an FALCON 9 launch vehicle from the Air Force Eastern Test Range (AFETR). Payload-class satellites include a variety of spacecraft equipped with specific instruments for various scientific and technological missions. These include communications satellites like Starlink; space stations such as the ISS; scientific satellites like the Hubble; Earth observation satellites from companies like Planet Labs, Umbra, and HawkEye 360; GPS; miniature CubeSats for education and research; and military/defense satellites.

Loading next visibility...
Identifier
57340, 2023-099N
Orbit
LEO
Country
Flag of USUS
Related business
Manufacturer
SpaceX/Seattle
Mission
Operational Commercial Communications
Bus & Motor
STARLINK, Unknown motor
Mass
305 kg wet, ~290 kg dry
Launch date (UTC)
2023-07-16 (3 years ago)
Launch vehicle
FALCON 9
Launch site
Air Force Eastern Test Range (AFETR)
Object type
Payload
Rocket body
Debris
Shape & HBR
Box + 1 Pan, 10.1 m
Radar Cross Section
11.087 m², Large (>1 m²)

Expand to show TLE details & history
Last TLE update: 2 days ago

TLE from 2 days ago
0 STARLINK-6321
1 57340U 23099N   26171.03228538  .00001572  00000-0  66612-4 0  9990
2 57340  43.0018  34.8255 0000736 264.6770  95.3998 15.27592376161729
Epoch: 2026-06-20T00:46Z
TLE epoch observation values (Epoch: 2026-06-20T00:46:29.456Z)
Latitude
-0.00001°
Longitude
114.95002°
Altitude
482.835 km
Speed
7.626 km/s
True Right ascension
02h 19m 18s
True Declination
0° 00' 00"
Sunlit
Object was in daylight at epoch
Visualization orbit readout
Latitude
Unknown
Longitude
Unknown
Altitude
Unknown
Speed
Unknown
Apparent Right ascension
Unknown
Apparent Declination
Unknown
Sunlit
N/A
Visualization observer readout
Local Sidereal Time
21:29:56
Azimuth
Unknown
Elevation
Unknown
Doppler factor
Unknown
Orbital elements
Apogee altitude
485.462 km
Perigee altitude
484.452 km
Semi-major axis
6,863.094 km
Eccentricity
0.00007
Inclination
43.0018°
RAAN
34.8255°
Arg. of periapsis
264.677°
True anomaly
95.4082°
Mean anomaly
95.3998°
Eccentric anomaly
95.404°
Mean motion
3.81736 °/min
Orbital period
94.31 mins
BSTAR
0.000066612
Loading maneuver chart data...
Computing Atmospheric mass density...
Loading historical data...
Loading historical data...
Loading historical data...
Loading historical data...
Loading historical data...
Loading historical data...
Loading historical data...

Documentation

Showing up to 5 results
|